WZZ701 LHBP-LHPA

Flight info

Callsign WZZ701
Flight time N/A
Altitude 16000
Route GILEP DCT PH011 DCT PH007 DCT PH014
Aircraft A321/M-SDE3FGHIRWY/LB1

Departure

Time 2026-05-06 13:49
Airport Budapest Liszt Ferenc International Airport (LHBP)

Arrival

Time N/A
Airport Pápa Air Base (LHPA)
Time Latitude Longitude Altitude Speed Heading
2026-05-06 13:27 47.43552 19.25820 456 ft 0 kts 312°
2026-05-06 13:41 47.43549 19.25825 457 ft 3 kts 312°
2026-05-06 13:42 47.43531 19.25854 455 ft 4 kts 322°
2026-05-06 13:42 47.43518 19.25865 457 ft 2 kts 42°
2026-05-06 13:42 47.43517 19.25863 457 ft 0 kts 42°
2026-05-06 13:46 47.43527 19.25876 456 ft 4 kts 42°
2026-05-06 13:46 47.43558 19.25917 458 ft 8 kts 42°
2026-05-06 13:46 47.43609 19.25986 458 ft 12 kts 43°
2026-05-06 13:46 47.43689 19.26033 458 ft 14 kts 339°
2026-05-06 13:47 47.43781 19.25980 458 ft 16 kts 21°
2026-05-06 13:47 47.43874 19.26099 458 ft 19 kts 42°
2026-05-06 13:47 47.43979 19.26239 459 ft 21 kts 42°
2026-05-06 13:47 47.44065 19.26404 470 ft 18 kts 75°
2026-05-06 13:48 47.44047 19.26559 470 ft 12 kts 128°
2026-05-06 13:48 47.44025 19.26595 468 ft 0 kts 134°
2026-05-06 13:48 47.43991 19.26647 470 ft 37 kts 133°
2026-05-06 13:48 47.43588 19.27295 470 ft 131 kts 132°
2026-05-06 13:49 47.42852 19.28517 847 ft 166 kts 138°
2026-05-06 13:49 47.42128 19.29803 1877 ft 163 kts 131°
2026-05-06 13:49 47.41546 19.31304 2597 ft 177 kts 126°
2026-05-06 13:49 47.40899 19.32987 3099 ft 200 kts 125°
2026-05-06 13:50 47.40162 19.34891 3637 ft 227 kts 124°
2026-05-06 13:50 47.39348 19.36997 4433 ft 242 kts 124°
2026-05-06 13:50 47.38488 19.39175 5421 ft 250 kts 129°
2026-05-06 13:50 47.37121 19.40788 6104 ft 258 kts 165°
2026-05-06 13:51 47.35341 19.40919 6770 ft 260 kts 197°
2026-05-06 13:51 47.33851 19.39471 7585 ft 262 kts 230°
2026-05-06 13:51 47.32901 19.37169 8706 ft 265 kts 243°
2026-05-06 13:51 47.32148 19.34674 9787 ft 269 kts 245°
2026-05-06 13:52 47.31383 19.32101 10519 ft 284 kts 244°
2026-05-06 13:52 47.30496 19.29376 11052 ft 304 kts 242°
2026-05-06 13:52 47.29491 19.26591 11870 ft 312 kts 240°
2026-05-06 13:52 47.28404 19.23803 12810 ft 316 kts 239°
2026-05-06 13:53 47.27257 19.21006 13737 ft 322 kts 238°
2026-05-06 13:53 47.26068 19.18182 14546 ft 327 kts 237°
2026-05-06 13:53 47.24851 19.15320 15354 ft 332 kts 237°
2026-05-06 13:53 47.23614 19.12419 15756 ft 335 kts 237°
2026-05-06 13:54 47.22380 19.09516 15886 ft 333 kts 237°
2026-05-06 13:54 47.21231 19.06626 15911 ft 325 kts 244°
2026-05-06 13:54 47.20632 19.03432 15913 ft 327 kts 262°
2026-05-06 13:54 47.20751 19.00133 15913 ft 331 kts 279°
2026-05-06 13:55 47.21615 18.96928 15910 ft 338 kts 298°
2026-05-06 13:55 47.23023 18.94141 15912 ft 340 kts 304°
2026-05-06 13:55 47.24485 18.91406 15911 ft 340 kts 304°
2026-05-06 13:55 47.25950 18.88670 15908 ft 340 kts 304°
2026-05-06 13:56 47.27415 18.85935 15907 ft 340 kts 304°
2026-05-06 13:56 47.28873 18.83200 15907 ft 340 kts 304°
2026-05-06 13:56 47.30307 18.80493 15909 ft 340 kts 304°
2026-05-06 13:56 47.31758 18.77752 15910 ft 340 kts 304°
2026-05-06 13:57 47.33212 18.75005 15909 ft 340 kts 304°
2026-05-06 13:57 47.34665 18.72261 15910 ft 340 kts 304°
2026-05-06 13:57 47.36118 18.69514 15912 ft 340 kts 304°
2026-05-06 13:57 47.37575 18.66757 15913 ft 341 kts 304°
2026-05-06 13:58 47.39029 18.64001 15915 ft 341 kts 304°
2026-05-06 13:58 47.40478 18.61240 15915 ft 340 kts 302°
2026-05-06 13:58 47.41661 18.58259 15926 ft 334 kts 290°
2026-05-06 13:58 47.42424 18.55041 15927 ft 331 kts 283°
2026-05-06 13:59 47.43083 18.51789 15927 ft 331 kts 283°
2026-05-06 13:59 47.43746 18.48533 15928 ft 331 kts 283°
2026-05-06 13:59 47.44407 18.45276 15924 ft 330 kts 283°
2026-05-06 13:59 47.45064 18.42030 15922 ft 330 kts 283°
2026-05-06 14:00 47.45721 18.38784 15922 ft 330 kts 283°
2026-05-06 14:00 47.46157 18.36631 15922 ft 330 kts 283°
2026-05-06 14:00 47.46816 18.33384 15923 ft 330 kts 283°
2026-05-06 14:00 47.47480 18.30138 15919 ft 330 kts 283°
2026-05-06 14:01 47.48098 18.26882 15917 ft 328 kts 278°
2026-05-06 14:01 47.48315 18.23557 15916 ft 324 kts 266°
2026-05-06 14:01 47.48253 18.20229 15913 ft 323 kts 265°
2026-05-06 14:01 47.48198 18.16958 15660 ft 313 kts 265°
2026-05-06 14:02 47.48147 18.13782 15413 ft 306 kts 265°
2026-05-06 14:02 47.48094 18.10646 15168 ft 304 kts 265°
2026-05-06 14:02 47.48040 18.07562 14872 ft 298 kts 265°
2026-05-06 14:02 47.47987 18.04517 14503 ft 295 kts 265°
2026-05-06 14:03 47.47932 18.01505 14128 ft 292 kts 265°
2026-05-06 14:03 47.47877 17.98514 13755 ft 290 kts 265°
2026-05-06 14:03 47.47821 17.95549 13353 ft 287 kts 265°
2026-05-06 14:03 47.47769 17.92613 12974 ft 284 kts 265°
2026-05-06 14:04 47.47717 17.89708 12607 ft 281 kts 265°
2026-05-06 14:04 47.47665 17.86841 12244 ft 278 kts 265°
2026-05-06 14:04 47.47610 17.84000 11890 ft 275 kts 265°
2026-05-06 14:04 47.47552 17.81184 11514 ft 273 kts 265°
2026-05-06 14:05 47.47494 17.78393 11161 ft 271 kts 265°
2026-05-06 14:05 47.47436 17.75621 10816 ft 269 kts 264°
2026-05-06 14:05 47.47380 17.72865 10461 ft 267 kts 264°
2026-05-06 14:05 47.47323 17.70127 10112 ft 266 kts 264°
2026-05-06 14:06 47.47266 17.67401 9759 ft 264 kts 264°
2026-05-06 14:06 47.47208 17.64701 9392 ft 262 kts 264°
2026-05-06 14:06 47.47148 17.62027 9041 ft 259 kts 264°
2026-05-06 14:06 47.47089 17.59376 8706 ft 257 kts 264°
2026-05-06 14:07 47.47027 17.56756 8437 ft 251 kts 262°
2026-05-06 14:07 47.46726 17.54261 8121 ft 247 kts 255°
2026-05-06 14:07 47.46513 17.51665 7488 ft 260 kts 261°
2026-05-06 14:07 47.46367 17.48997 7065 ft 261 kts 262°
2026-05-06 14:08 47.46230 17.46332 6701 ft 259 kts 262°
2026-05-06 14:08 47.46098 17.43714 6338 ft 259 kts 262°
2026-05-06 14:08 47.45975 17.41026 5925 ft 259 kts 264°
2026-05-06 14:08 47.46323 17.38398 5544 ft 268 kts 290°
2026-05-06 14:09 47.47384 17.36149 5186 ft 272 kts 304°
2026-05-06 14:09 47.48618 17.34014 4754 ft 276 kts 305°
2026-05-06 14:09 47.49904 17.31863 4225 ft 271 kts 306°
2026-05-06 14:09 47.51131 17.29850 3729 ft 257 kts 306°
2026-05-06 14:10 47.52465 17.28160 3217 ft 254 kts 329°
2026-05-06 14:10 47.54136 17.27657 3009 ft 249 kts
2026-05-06 14:10 47.55710 17.28488 2988 ft 236 kts 39°
2026-05-06 14:10 47.56724 17.30262 3028 ft 219 kts 65°
2026-05-06 14:11 47.57258 17.32329 3002 ft 207 kts 84°
2026-05-06 14:11 47.57359 17.34395 3000 ft 198 kts 103°
2026-05-06 14:11 47.57089 17.36324 3001 ft 190 kts 119°
2026-05-06 14:11 47.56501 17.38031 3002 ft 183 kts 133°
2026-05-06 14:12 47.55672 17.39402 2989 ft 176 kts 147°
2026-05-06 14:12 47.54669 17.40386 2996 ft 171 kts 160°
2026-05-06 14:12 47.53562 17.41018 3002 ft 170 kts 166°
2026-05-06 14:12 47.52441 17.41608 3003 ft 172 kts 166°
2026-05-06 14:13 47.51314 17.42203 3010 ft 173 kts 166°
2026-05-06 14:13 47.50182 17.42801 2992 ft 173 kts 167°
2026-05-06 14:13 47.49057 17.43395 2843 ft 171 kts 167°
2026-05-06 14:13 47.47940 17.43984 2662 ft 170 kts 167°
2026-05-06 14:14 47.46852 17.44560 2461 ft 160 kts 167°
2026-05-06 14:14 47.45840 17.45095 2243 ft 149 kts 167°
2026-05-06 14:14 47.44904 17.45590 2046 ft 136 kts 168°
2026-05-06 14:14 47.44036 17.46046 1886 ft 130 kts 168°
2026-05-06 14:15 47.43194 17.46488 1715 ft 127 kts 168°
2026-05-06 14:15 47.42364 17.46924 1544 ft 126 kts 169°
2026-05-06 14:15 47.41545 17.47354 1411 ft 125 kts 169°
2026-05-06 14:15 47.40723 17.47780 1226 ft 125 kts 168°
2026-05-06 14:16 47.39907 17.48197 1039 ft 124 kts 167°
2026-05-06 14:16 47.39089 17.48626 883 ft 126 kts 165°
2026-05-06 14:16 47.38269 17.49082 693 ft 126 kts 164°
2026-05-06 14:16 47.37436 17.49521 533 ft 128 kts 167°
2026-05-06 14:17 47.36610 17.49953 526 ft 130 kts 168°
2026-05-06 14:17 47.35634 17.50434 1215 ft 152 kts 167°
2026-05-06 14:17 47.34557 17.50928 1548 ft 174 kts 168°
2026-05-06 14:17 47.33367 17.51467 1632 ft 183 kts 166°
2026-05-06 14:18 47.32315 17.52560 1687 ft 197 kts 130°
2026-05-06 14:18 47.32055 17.54505 1576 ft 196 kts 83°
2026-05-06 14:18 47.32797 17.56057 1491 ft 184 kts 30°
2026-05-06 14:18 47.33969 17.56404 1430 ft 167 kts 349°
2026-05-06 14:19 47.35097 17.56170 1410 ft 162 kts 343°
2026-05-06 14:19 47.36201 17.55880 1393 ft 160 kts 343°
2026-05-06 14:19 47.37274 17.55485 1420 ft 159 kts 337°
2026-05-06 14:19 47.38336 17.55018 1381 ft 158 kts 335°
2026-05-06 14:20 47.39387 17.54533 1411 ft 159 kts 336°
2026-05-06 14:20 47.40431 17.54018 1415 ft 158 kts 333°
2026-05-06 14:20 47.41445 17.53421 1374 ft 153 kts 320°
2026-05-06 14:20 47.41980 17.52254 1446 ft 132 kts 265°
2026-05-06 14:21 47.41856 17.50943 1406 ft 128 kts 252°
2026-05-06 14:21 47.41693 17.49670 1295 ft 128 kts 251°
2026-05-06 14:21 47.41501 17.48401 1274 ft 126 kts 245°
2026-05-06 14:21 47.40858 17.47766 1218 ft 123 kts 173°
2026-05-06 14:22 47.40053 17.48259 1033 ft 120 kts 168°
2026-05-06 14:22 47.39256 17.48600 931 ft 120 kts 171°
2026-05-06 14:22 47.38461 17.48972 756 ft 120 kts 165°
2026-05-06 14:22 47.37673 17.49403 594 ft 122 kts 168°
2026-05-06 14:23 47.36899 17.49809 481 ft 107 kts 166°
2026-05-06 14:23 47.36280 17.50117 479 ft 92 kts 160°
2026-05-06 14:23 47.35477 17.50530 1017 ft 139 kts 165°
2026-05-06 14:23 47.34547 17.51079 1527 ft 151 kts 163°
2026-05-06 14:24 47.33575 17.51695 1548 ft 151 kts 163°
2026-05-06 14:24 47.32756 17.52529 1564 ft 146 kts 131°
2026-05-06 14:24 47.32706 17.54068 1488 ft 166 kts 68°
2026-05-06 14:24 47.33602 17.55075 1426 ft 167 kts 10°
2026-05-06 14:25 47.34728 17.55111 1446 ft 160 kts 341°
2026-05-06 14:25 47.35804 17.54723 1489 ft 159 kts 336°
2026-05-06 14:25 47.36856 17.54241 1538 ft 157 kts 333°
2026-05-06 14:25 47.37878 17.53677 1600 ft 157 kts 329°
2026-05-06 14:26 47.38885 17.53052 1588 ft 156 kts 329°
2026-05-06 14:26 47.39898 17.52480 1550 ft 156 kts 334°
2026-05-06 14:26 47.40934 17.51981 1496 ft 158 kts 336°
2026-05-06 14:26 47.41954 17.51422 1517 ft 153 kts 323°
2026-05-06 14:27 47.42524 17.50279 1595 ft 134 kts 264°
2026-05-06 14:27 47.42280 17.49023 1550 ft 127 kts 240°
2026-05-06 14:27 47.41948 17.47844 1508 ft 122 kts 243°
2026-05-06 14:27 47.41309 17.47344 1656 ft 128 kts 166°
2026-05-06 14:28 47.40490 17.48052 1353 ft 131 kts 164°
2026-05-06 14:28 47.39687 17.48416 1084 ft 119 kts 174°
2026-05-06 14:28 47.38884 17.48758 888 ft 121 kts 168°
2026-05-06 14:28 47.38097 17.49171 657 ft 120 kts 167°
2026-05-06 14:29 47.37309 17.49591 522 ft 120 kts 168°
2026-05-06 14:29 47.36598 17.49949 475 ft 92 kts 162°
2026-05-06 14:29 47.35948 17.50282 530 ft 129 kts 167°
2026-05-06 14:29 47.35004 17.50788 1270 ft 157 kts 165°
2026-05-06 14:30 47.33947 17.51391 1598 ft 166 kts 163°
2026-05-06 14:30 47.32872 17.52009 1655 ft 166 kts 162°
2026-05-06 14:30 47.31838 17.52777 1776 ft 171 kts 144°
2026-05-06 14:30 47.31230 17.54375 1650 ft 189 kts 107°
2026-05-06 14:31 47.31306 17.56335 1500 ft 200 kts 79°
2026-05-06 14:31 47.32148 17.57991 1597 ft 212 kts 33°
2026-05-06 14:31 47.33541 17.58286 1530 ft 203 kts 340°
2026-05-06 14:31 47.34873 17.57652 1530 ft 201 kts 337°
2026-05-06 14:32 47.36140 17.57121 1531 ft 177 kts 340°
2026-05-06 14:32 47.37281 17.56675 1463 ft 164 kts 338°
2026-05-06 14:32 47.38366 17.56233 1406 ft 160 kts 339°
2026-05-06 14:32 47.39433 17.55811 1349 ft 157 kts 337°
2026-05-06 14:33 47.40469 17.55316 1288 ft 156 kts 334°
2026-05-06 14:33 47.41294 17.54446 1444 ft 140 kts 283°
2026-05-06 14:33 47.41277 17.53153 1468 ft 125 kts 247°
2026-05-06 14:33 47.41038 17.51930 1384 ft 124 kts 248°
2026-05-06 14:34 47.40813 17.50703 1313 ft 123 kts 248°
2026-05-06 14:34 47.40596 17.49526 1417 ft 120 kts 246°
2026-05-06 14:34 47.40227 17.48470 1484 ft 116 kts 218°
2026-05-06 14:34 47.39426 17.48529 1356 ft 132 kts 161°
2026-05-06 14:35 47.38601 17.48980 920 ft 121 kts 174°
2026-05-06 14:35 47.37799 17.49337 656 ft 122 kts 168°
2026-05-06 14:35 47.37004 17.49752 502 ft 116 kts 168°
2026-05-06 14:35 47.36332 17.50098 504 ft 105 kts 167°
2026-05-06 14:36 47.35489 17.50585 1147 ft 150 kts 163°
2026-05-06 14:36 47.34462 17.51228 1614 ft 172 kts 162°
2026-05-06 14:36 47.33542 17.52213 1875 ft 155 kts 134°
2026-05-06 14:36 47.33440 17.53778 2000 ft 170 kts 69°
2026-05-06 14:37 47.34357 17.54780 1854 ft 167 kts 359°
2026-05-06 14:37 47.35433 17.54416 1563 ft 159 kts 330°
2026-05-06 14:37 47.36471 17.53831 1364 ft 159 kts 334°
2026-05-06 14:37 47.37509 17.53324 1323 ft 157 kts 334°
2026-05-06 14:38 47.38529 17.52776 1328 ft 156 kts 332°
2026-05-06 14:38 47.39565 17.52260 1338 ft 157 kts 334°
2026-05-06 14:38 47.40601 17.51766 1410 ft 157 kts 335°
2026-05-06 14:38 47.41491 17.50979 1442 ft 142 kts 292°
2026-05-06 14:39 47.41621 17.49675 1436 ft 127 kts 256°
2026-05-06 14:39 47.41503 17.48409 1431 ft 122 kts 249°
2026-05-06 14:39 47.40875 17.47904 1489 ft 126 kts 167°
2026-05-06 14:39 47.40052 17.48401 1175 ft 123 kts 173°
2026-05-06 14:40 47.39230 17.48656 930 ft 119 kts 174°
2026-05-06 14:40 47.38437 17.48997 729 ft 119 kts 168°
2026-05-06 14:40 47.37654 17.49410 577 ft 120 kts 168°
2026-05-06 14:40 47.36883 17.49812 480 ft 108 kts 164°
2026-05-06 14:41 47.36265 17.50131 482 ft 90 kts 160°
2026-05-06 14:41 47.35428 17.50569 814 ft 148 kts 164°
2026-05-06 14:41 47.34437 17.51191 1379 ft 166 kts 163°
2026-05-06 14:41 47.33365 17.51892 1546 ft 169 kts 162°
2026-05-06 14:42 47.32599 17.53213 1876 ft 193 kts 114°
2026-05-06 14:42 47.32765 17.55235 1627 ft 204 kts 75°
2026-05-06 14:42 47.33485 17.57017 1645 ft 209 kts 38°
2026-05-06 14:42 47.34849 17.57558 1562 ft 204 kts 348°
2026-05-06 14:43 47.36192 17.56953 1481 ft 200 kts 335°
2026-05-06 14:43 47.37511 17.56283 1532 ft 201 kts 337°
2026-05-06 14:43 47.38842 17.55590 1560 ft 204 kts 336°
2026-05-06 14:43 47.40174 17.54906 1545 ft 201 kts 337°
2026-05-06 14:44 47.41473 17.54179 1488 ft 200 kts 334°
2026-05-06 14:44 47.42578 17.53171 1522 ft 169 kts 301°
2026-05-06 14:44 47.42843 17.51702 1478 ft 137 kts 249°
2026-05-06 14:45 47.42206 17.49279 1185 ft 126 kts 240°
2026-05-06 14:45 47.41808 17.48147 1070 ft 116 kts 220°
2026-05-06 14:45 47.41030 17.48007 1004 ft 126 kts 172°
2026-05-06 14:45 47.40197 17.48239 934 ft 121 kts 177°
2026-05-06 14:46 47.39380 17.48524 796 ft 120 kts 169°
2026-05-06 14:46 47.38602 17.48931 738 ft 118 kts 167°
2026-05-06 14:46 47.37831 17.49320 631 ft 118 kts 170°
2026-05-06 14:46 47.37055 17.49722 489 ft 114 kts 168°
2026-05-06 14:47 47.36407 17.50053 479 ft 84 kts 161°
2026-05-06 14:47 47.35789 17.50359 481 ft 131 kts 169°
2026-05-06 14:47 47.34783 17.50885 1189 ft 167 kts 163°
2026-05-06 14:47 47.33607 17.51610 1527 ft 199 kts 162°
2026-05-06 14:48 47.32518 17.52836 1876 ft 206 kts 126°
2026-05-06 14:48 47.32302 17.54235 2011 ft 222 kts 92°
2026-05-06 14:48 47.33022 17.56254 1934 ft 234 kts 36°
2026-05-06 14:48 47.34545 17.56674 1644 ft 223 kts 341°
2026-05-06 14:49 47.35961 17.55834 1511 ft 220 kts 327°
2026-05-06 14:49 47.37245 17.54596 1505 ft 222 kts 325°
2026-05-06 14:49 47.38655 17.53620 1597 ft 227 kts 336°
2026-05-06 14:49 47.40159 17.52874 1575 ft 227 kts 339°
2026-05-06 14:50 47.41610 17.52193 1552 ft 211 kts 338°
2026-05-06 14:50 47.42977 17.51527 1497 ft 203 kts 339°
2026-05-06 14:50 47.44089 17.50515 1484 ft 171 kts 293°
2026-05-06 14:50 47.44175 17.49030 1457 ft 137 kts 249°
2026-05-06 14:51 47.43928 17.47749 1362 ft 126 kts 246°
2026-05-06 14:51 47.43563 17.46652 1294 ft 115 kts 212°
2026-05-06 14:51 47.42756 17.46766 1211 ft 128 kts 165°
2026-05-06 14:51 47.41957 17.47213 1118 ft 120 kts 169°
2026-05-06 14:52 47.41173 17.47592 1079 ft 119 kts 169°
2026-05-06 14:52 47.40379 17.47983 949 ft 120 kts 168°
2026-05-06 14:52 47.39592 17.48389 824 ft 119 kts 167°
2026-05-06 14:52 47.38825 17.48804 775 ft 117 kts 168°
2026-05-06 14:53 47.38056 17.49196 653 ft 117 kts 169°
2026-05-06 14:53 47.37288 17.49598 513 ft 117 kts 168°
2026-05-06 14:53 47.36582 17.49960 476 ft 93 kts 161°
2026-05-06 14:53 47.35899 17.50314 502 ft 141 kts 166°
2026-05-06 14:54 47.34896 17.50907 1126 ft 163 kts 163°
2026-05-06 14:54 47.33752 17.51619 1478 ft 193 kts 163°
2026-05-06 14:54 47.32662 17.52587 1861 ft 184 kts 137°
2026-05-06 14:54 47.32302 17.54467 1811 ft 203 kts 86°
2026-05-06 14:55 47.32750 17.56446 1598 ft 203 kts 73°
2026-05-06 14:55 47.33470 17.58192 1666 ft 208 kts 37°
2026-05-06 14:55 47.34851 17.58511 1534 ft 204 kts 339°
2026-05-06 14:55 47.36136 17.57720 1532 ft 199 kts 332°
2026-05-06 14:56 47.37409 17.56899 1544 ft 198 kts 332°
2026-05-06 14:56 47.38662 17.56076 1560 ft 197 kts 332°
2026-05-06 14:56 47.39922 17.55282 1554 ft 196 kts 335°
2026-05-06 14:56 47.41193 17.54569 1498 ft 194 kts 336°
2026-05-06 14:57 47.42457 17.53883 1530 ft 193 kts 333°
2026-05-06 14:57 47.43391 17.52615 1637 ft 181 kts 287°
2026-05-06 14:57 47.43471 17.50990 1594 ft 147 kts 254°
2026-05-06 14:57 47.43254 17.49614 1467 ft 133 kts 248°
2026-05-06 14:58 47.43005 17.48355 1388 ft 125 kts 245°
2026-05-06 14:58 47.42483 17.47502 1316 ft 117 kts 192°
2026-05-06 14:58 47.41645 17.47696 1168 ft 122 kts 176°
2026-05-06 14:58 47.40834 17.47906 1086 ft 119 kts 177°
2026-05-06 14:59 47.40015 17.48152 970 ft 121 kts 173°
2026-05-06 14:59 47.39219 17.48591 875 ft 121 kts 167°
2026-05-06 14:59 47.38442 17.49003 731 ft 117 kts 170°
2026-05-06 14:59 47.37679 17.49394 585 ft 117 kts 169°
2026-05-06 15:00 47.36924 17.49791 482 ft 108 kts 167°
2026-05-06 15:00 47.36325 17.50093 479 ft 78 kts 161°
2026-05-06 15:00 47.35716 17.50416 485 ft 135 kts 161°
2026-05-06 15:00 47.34692 17.51010 1288 ft 169 kts 163°
2026-05-06 15:01 47.33575 17.51758 2341 ft 178 kts 161°
2026-05-06 15:01 47.32438 17.52594 3095 ft 189 kts 159°
2026-05-06 15:01 47.31219 17.53514 3713 ft 208 kts 159°
2026-05-06 15:01 47.29828 17.54480 4355 ft 234 kts 161°
2026-05-06 15:02 47.28278 17.55509 5189 ft 252 kts 161°
2026-05-06 15:02 47.26660 17.56607 6267 ft 261 kts 156°
2026-05-06 15:02 47.25241 17.58391 7281 ft 280 kts 132°
2026-05-06 15:02 47.24240 17.60906 8383 ft 292 kts 117°
2026-05-06 15:03 47.23665 17.63822 9392 ft 307 kts 101°
2026-05-06 15:03 47.23846 17.66992 9812 ft 317 kts 75°
2026-05-06 15:03 47.24603 17.70038 9969 ft 318 kts 70°
2026-05-06 15:03 47.25401 17.73070 10010 ft 317 kts 70°
2026-05-06 15:04 47.26199 17.76093 10010 ft 317 kts 71°
2026-05-06 15:04 47.26987 17.79113 10010 ft 315 kts 70°
2026-05-06 15:04 47.27753 17.82088 10013 ft 315 kts 71°
2026-05-06 15:04 47.28535 17.85143 10024 ft 315 kts 71°
2026-05-06 15:05 47.29293 17.88124 10024 ft 315 kts 71°
2026-05-06 15:05 47.30058 17.91148 10023 ft 315 kts 71°
2026-05-06 15:05 47.30822 17.94171 10024 ft 315 kts 71°
2026-05-06 15:05 47.31586 17.97196 10015 ft 315 kts 71°
2026-05-06 15:06 47.32349 18.00227 10003 ft 316 kts 71°
2026-05-06 15:06 47.33113 18.03252 10001 ft 315 kts 71°
2026-05-06 15:06 47.33877 18.06275 9994 ft 315 kts 71°
2026-05-06 15:06 47.34639 18.09301 9996 ft 315 kts 71°
2026-05-06 15:07 47.35400 18.12330 9996 ft 315 kts 71°
2026-05-06 15:07 47.36158 18.15357 9985 ft 314 kts 72°
2026-05-06 15:07 47.36913 18.18385 9991 ft 315 kts 72°
2026-05-06 15:07 47.37671 18.21414 9994 ft 314 kts 72°
2026-05-06 15:08 47.38429 18.24440 10001 ft 314 kts 72°
2026-05-06 15:08 47.39184 18.27470 10000 ft 315 kts 72°
2026-05-06 15:08 47.39937 18.30500 10005 ft 315 kts 72°
2026-05-06 15:08 47.40691 18.33544 10007 ft 315 kts 72°
2026-05-06 15:09 47.41444 18.36585 10010 ft 315 kts 72°
2026-05-06 15:09 47.42198 18.39625 10025 ft 315 kts 72°
2026-05-06 15:09 47.42952 18.42665 10016 ft 316 kts 72°
2026-05-06 15:09 47.43708 18.45706 10033 ft 315 kts 72°
2026-05-06 15:10 47.44465 18.48748 10020 ft 315 kts 72°
2026-05-06 15:10 47.45217 18.51779 10019 ft 315 kts 72°
2026-05-06 15:10 47.45965 18.54817 10019 ft 315 kts 72°
2026-05-06 15:10 47.46710 18.57856 10020 ft 314 kts 72°
2026-05-06 15:11 47.47454 18.60897 9795 ft 314 kts 72°
2026-05-06 15:11 47.48195 18.63926 9341 ft 313 kts 72°
2026-05-06 15:11 47.48933 18.66943 8910 ft 311 kts 72°
2026-05-06 15:11 47.49666 18.69930 8535 ft 307 kts 72°
2026-05-06 15:12 47.50395 18.72894 8098 ft 306 kts 72°
2026-05-06 15:12 47.51116 18.75841 7702 ft 304 kts 73°
2026-05-06 15:12 47.51830 18.78784 7307 ft 303 kts 73°
2026-05-06 15:12 47.52529 18.81673 6923 ft 301 kts 73°
2026-05-06 15:13 47.53223 18.84528 6811 ft 288 kts 73°
2026-05-06 15:13 47.53914 18.87170 6681 ft 264 kts 66°
2026-05-06 15:13 47.54918 18.89446 6504 ft 261 kts 51°
2026-05-06 15:13 47.56214 18.91314 6064 ft 266 kts 43°
2026-05-06 15:14 47.57581 18.93169 5653 ft 267 kts 47°
2026-05-06 15:14 47.58562 18.95457 5227 ft 264 kts 74°
2026-05-06 15:14 47.58738 18.98105 4593 ft 255 kts 105°
2026-05-06 15:14 47.58103 19.00465 4272 ft 240 kts 129°
2026-05-06 15:15 47.57055 19.02295 3940 ft 229 kts 139°
2026-05-06 15:15 47.55996 19.04002 3640 ft 221 kts 139°
2026-05-06 15:15 47.54974 19.05660 3355 ft 215 kts 138°
2026-05-06 15:15 47.53978 19.07281 3083 ft 210 kts 139°
2026-05-06 15:16 47.52993 19.08883 2806 ft 205 kts 138°
2026-05-06 15:16 47.52056 19.10409 2543 ft 201 kts 138°
2026-05-06 15:16 47.51130 19.11918 2300 ft 189 kts 140°
2026-05-06 15:16 47.50312 19.13255 2061 ft 164 kts 139°
2026-05-06 15:17 47.49591 19.14429 1838 ft 145 kts 140°
2026-05-06 15:17 47.48951 19.15467 1678 ft 131 kts 141°
2026-05-06 15:17 47.48349 19.16441 1488 ft 126 kts 141°
2026-05-06 15:17 47.47761 19.17391 1331 ft 124 kts 141°
2026-05-06 15:18 47.47162 19.18335 1142 ft 129 kts 141°
2026-05-06 15:18 47.46567 19.19351 957 ft 132 kts 139°
2026-05-06 15:18 47.45949 19.20318 813 ft 127 kts 141°
2026-05-06 15:18 47.45357 19.21280 639 ft 127 kts 139°
2026-05-06 15:19 47.44776 19.22248 487 ft 126 kts 138°
2026-05-06 15:19 47.44218 19.23130 454 ft 102 kts 133°
2026-05-06 15:19 47.43857 19.23718 456 ft 54 kts 133°
2026-05-06 15:19 47.43714 19.24023 452 ft 32 kts 112°
2026-05-06 15:20 47.43661 19.24321 457 ft 26 kts 105°
2026-05-06 15:20 47.43577 19.24569 456 ft 25 kts 125°
2026-05-06 15:20 47.43466 19.24752 457 ft 25 kts 132°
2026-05-06 15:20 47.43354 19.24933 457 ft 18 kts 133°
2026-05-06 15:21 47.43259 19.25086 457 ft 22 kts 130°
2026-05-06 15:21 47.43260 19.25271 458 ft 18 kts 50°
2026-05-06 15:21 47.43350 19.25397 458 ft 19 kts 42°
2026-05-06 15:21 47.43460 19.25543 458 ft 23 kts 41°
2026-05-06 15:22 47.43543 19.25667 458 ft 15 kts 68°
2026-05-06 15:22 47.43508 19.25772 458 ft 9 kts 133°
2026-05-06 15:22 47.43498 19.25836 458 ft 2 kts 49°
2026-05-06 15:22 47.43519 19.25856 458 ft 5 kts
2026-05-06 15:23 47.43546 19.25828 458 ft 3 kts 315°
2026-05-06 15:23 47.43552 19.25819 458 ft 0 kts 314°